Location: Trebic
(49.2170°N, 15.8830°E)
Time: 18:13:20
(UTC+02:00)

Transit 4A - Pass Details

Date: 26 August 2019
Orbit: 867 x 978 km, 66.8° (Epoch: 17 October)

Event Time Altitude Azimuth Distance (km) Brightness Sun altitude
Rises 16:58:56 0° 171° (S) 3,657 11.1 27.1°
Reaches altitude 10° 17:01:58 10° 158° (SSE) 2,719 10.4 26.7°
Maximum altitude 17:06:52 24° 107° (ESE) 1,903 9.3 25.9°
Drops below altitude 10° 17:11:48 10° 56° (ENE) 2,725 9.9 25.1°
Sets 17:14:49 0° 44° (NE) 3,667 10.5 24.6°
